Location: Fort Worth, Tx
(32.7431°N, 97.3695°W)
Time: 21:00:06
(UTC-04:00)

Vanguard 1 Rocket - Pass Details

Date: 22 September 2024
Orbit: 650 x 4218 km, 34.3° (Epoch: 11 October)

Event Time Altitude Azimuth Distance (km) Brightness Sun altitude
Exits shadow 05:07:58 76° 247° (WSW) 2,377 9.1 -39.0°
Maximum altitude 05:09:32 88° 166° (SSE) 2,455 9.3 -38.7°
Drops below altitude 10° 05:30:49 10° 80° (E) 6,951 12.6 -34.8°
Sets 05:37:02 0° 80° (E) 8,270 13.3 -33.7°
